Preview of NWS' New Version of Forecast
This preview is not operational and should not be used for support decisions.

Regional Weather Roundup (RWR)

Issued by National Weather Service (NWS)

                            
000
ASCA42 TJSJ 161110
RWRPR 
PUERTO RICO/U.S. VIRGIN ISLANDS HOURLY WEATHER ROUNDUP
NATIONAL WEATHER SERVICE SAN JUAN PR
700 AM AST SAT FEB 16 2019

PRZ001>002-007>008-010-161200-
PUERTO RICO
  
CITY           SKY/WX    TMP DP  RH WIND       PRES   REMARKS
SAN JUAN LMM   PTCLDY    72  70  94 E5        30.02R                  
AGUADILLA      CLEAR     66 N/A N/A CALM      30.02                   
CEIBA          CLEAR     72  70  94 S3        30.04R                  
$$

VIZ001>002-161200-
U.S. VIRGIN ISLANDS
  
CITY           SKY/WX    TMP DP  RH WIND       PRES   REMARKS
CHARLOTTE AMA  CLEAR     79  72  78 SE9       30.02R                  
CHRISTIANSTED  PTCLDY    79  73  83 E7        30.03R                  
$$

HOURLY WEATHER ROUNDUP FOR THE NEWS MEDIA
  
CITY           SKY/WX    TMP DP  RH WIND       PRES   REMARKS
ORLANDO        FAIR      57  55  93 CALM      29.93R                  
NEW YORK       MOCLDY    37  22  54 N17       29.81R WCI  27          
NEWARK         MOCLDY    36  19  50 NW14      29.82R WCI  27          
CHICAGO        MOCLDY    15   8  73 NW5       30.09R WCI   8          
HARTFORD       FAIR      37  23  56 VRB5      29.73R WCI  33          
BOSTON         CLOUDY    37  18  46 W10       29.74R WCI  30          
DALLAS         CLOUDY    35  31  85 N10       29.90F WCI  27          
PHILADELPHIA   MOCLDY    38  15  39 NW13      29.85R WCI  30          
LOS ANGELES    CLEAR     49  42  77 NW6       30.09S                  
WASHINGTON DC  CLOUDY    39  15  37 N13       29.87R WCI  31